Click on the image to enlargeKlik op de webcam foto voor een grotere versie
Or click here
for the webcam videoo


Visit our other website:Website of another weatherstation



No particular awareness of the weather is required.    There are no Weather-warnings

Select another period ( hide this area )

Units Period Custom range Directly to
Metric English Both
Daily Weekly Monthly Yearly
use both date-selectors for a custom range
previous Day
With this date

WeatherUnderground graphs for this period ( click here ) Loading the graph can take up to a minute!


Daily Summary for Wednesday 16 January 2019
Time Temp. ( °C ) Dew pt. ( °C ) Wind ( km/h ) from Gust ( km/h ) Pressure ( hPa ) Humid.( % ) Rainrate ( cm )
High6,8 5,4 11,3 East ( 77/363 ) 20,9 1016,5 93 0,30
Average6,4 3,7 1,9 Calm #68/195 6,2 1012,1 83 0,60
Low5,8 2,5 -   0,0 1006,3 75 -
Daily Tabular details for Wednesday 16 January 2019
Time Temp. ( °C ) Dew pt. ( °C ) Wind ( km/h ) from Gust ( km/h ) Pressure ( hPa ) Humid.( % ) Rainrate ( cm )
00:04 6,4 5,4   Calm 1,6 1016,5 93 -
00:09 6,4 5,4   Calm 3,2 1016,5 93 -
00:14 6,4 5,4   Calm 3,2 1016,5 93 -
00:18 6,4 5,4 1,4 ESE 1,6 1016,5 93 -
00:24 6,4 5,2 1,4 South 1,6 1016,5 92 -
00:29 6,4 5,2   Calm 1,6 1016,5 92 -
00:34 6,4 5,2   Calm 4,8 1016,5 92 -
00:39 6,5 5,3   Calm   1016,5 92 -
00:44 6,4 5,2 1,4 SW 3,2 1016,1 92 -
00:48 6,4 5,2   Calm   1016,1 92 -
00:54 6,4 5,2 1,4 East 3,2 1016,1 92 -
00:59 6,3 5,1   Calm 1,6 1016,1 92 -
01:04 6,3 5,3   Calm 1,6 1016,1 93 -
01:09 6,3 5,3 1,4 SSW 1,6 1016,1 93 -
01:13 6,3 5,3   Calm 3,2 1015,8 93 -
01:19 6,3 5,3   Calm 4,8 1015,8 93 -
01:23 6,2 5,2 1,4 SW 6,4 1015,8 93 -
01:29 6,2 5,0   Calm 1,6 1015,8 92 0,30
01:33 6,3 5,1   Calm 6,4 1015,8 92 0,30
01:39 6,3 4,9 3,2 ESE 4,8 1015,8 91 0,30
01:44 6,4 5,0   Calm 1,6 1015,8 91 0,30
01:48 6,4 4,9 9,7 East 9,7 1015,5 90 0,30
01:54 6,5 4,8 1,4 ENE 6,4 1015,5 89 0,30
01:58 6,6 4,9   Calm 1,6 1015,5 89 0,30
02:04 6,6 4,8   Calm 6,4 1015,5 88 0,30
02:08 6,7 4,9   Calm 4,8 1015,5 88 0,30
02:14 6,7 4,9 1,4 SE 4,8 1015,1 88 0,30
02:18 6,7 4,9 4,7 East 6,4 1015,1 88 0,30
02:24 6,7 4,9   Calm 6,4 1015,5 88 0,30
02:28 6,7 4,9 1,4 NW 4,8 1015,1 88 -
02:34 6,7 4,9   Calm 3,2 1015,1 88 -
02:39 6,7 4,9 3,2 West 4,8 1015,1 88 -
02:44 6,7 4,9 6,4 ESE 8,0 1015,5 88 -
02:49 6,7 4,7 3,2 WSW 4,8 1015,5 87 -
02:54 6,7 4,7 4,7 East 8,0 1015,5 87 -
02:59 6,7 4,7   Calm 3,2 1015,1 87 -
03:04 6,7 4,7 1,4 SSE 4,8 1015,1 87 -
03:09 6,7 4,7 11,3 East 11,3 1015,1 87 -
03:14 6,7 4,7 1,4 NE 4,8 1015,1 87 -
03:19 6,7 4,7 4,7 ENE 4,8 1015,1 87 -
03:24 6,7 4,5 1,4 ESE 3,2 1014,8 86 -
03:29 6,7 4,5 1,4 ESE 6,4 1014,8 86 -
03:34 6,7 4,5   Calm 9,7 1014,8 86 -
03:39 6,7 4,5 1,4 ESE 3,2 1014,8 86 -
03:44 6,7 4,5 4,7 East 4,8 1014,8 86 -
03:49 6,7 4,4 1,4 SW 4,8 1014,4 85 -
03:54 6,7 4,4 1,4 ENE 6,4 1014,4 85 -
03:59 6,7 4,4 1,4 SE 4,8 1014,4 85 -
04:04 6,8 4,5 3,2 ESE 4,8 1014,4 85 -
04:09 6,8 4,5 1,4 ENE 8,0 1014,4 85 -
04:14 6,8 4,3 1,4 East 4,8 1014,4 84 -
04:18 6,7 4,2   Calm 8,0 1014,1 84 -
04:24 6,8 4,3 3,2 WNW 4,8 1014,4 84 -
04:29 6,7 4,2   Calm 6,4 1014,1 84 -
04:34 6,7 4,4   Calm 1,6 1014,1 85 -
04:39 6,7 4,4   Calm 1,6 1014,1 85 -
04:44 6,7 4,4 1,4 NW 1,6 1014,1 85 -
04:49 6,7 4,2 1,4 WNW 9,7 1014,1 84 -
04:54 6,7 4,4 1,4 East 9,7 1013,8 85 -
04:59 6,7 4,2 1,4 East 6,4 1013,8 84 -
05:04 6,7 4,2 1,4 NNW 8,0 1013,8 84 -
05:09 6,6 4,1 6,4 West 12,9 1013,8 84 -
05:14 6,7 4,2   Calm 4,8 1013,8 84 -
05:18 6,7 4,2   Calm 1,6 1013,8 84 -
05:24 6,6 4,1   Calm 3,2 1013,4 84 -
05:29 6,6 4,1 1,4 ESE 1,6 1013,4 84 -
05:34 6,6 4,1   Calm 3,2 1013,4 84 -
05:39 6,6 3,9   Calm 1,6 1013,1 83 -
05:44 6,6 3,9 1,4 NW 4,8 1013,1 83 -
05:49 6,6 3,9 3,2 ESE 3,2 1013,4 83 -
05:54 6,6 3,9 1,4 West 4,8 1013,1 83 -
05:59 6,6 3,9 1,4 ESE 6,4 1013,1 83 -
06:04 6,6 3,9   Calm 3,2 1013,1 83 -
06:09 6,6 3,9 1,4 East 6,4 1013,1 83 -
06:14 6,6 3,9   Calm 1,6 1013,1 83 -
06:18 6,6 3,7 3,2 West 4,8 1013,1 82 -
06:24 6,6 3,7   Calm 4,8 1013,1 82 -
06:28 6,6 3,7 3,2 ESE 9,7 1012,8 82 -
06:34 6,6 3,6 3,2 SE 4,8 1012,8 81 -
06:39 6,6 3,6 1,4 WSW 6,4 1012,8 81 -
06:44 6,6 3,6 1,4 West 3,2 1012,8 81 -
06:48 6,6 3,6 1,4 ENE 6,4 1012,8 81 -
06:54 6,5 3,5 1,4 WNW 4,8 1012,8 81 -
06:58 6,5 3,5 4,7 WNW 8,0 1012,8 81 -
07:04 6,4 3,4   Calm 1,6 1012,8 81 -
07:09 6,4 3,4 3,2 ENE 3,2 1012,4 81 -
07:14 6,4 3,4 3,2 SE 8,0 1012,4 81 -
07:19 6,4 3,4   Calm 3,2 1012,4 81 -
07:24 6,4 3,4 1,4 ESE 9,7 1012,4 81 -
07:29 6,4 3,4   Calm 3,2 1012,8 81 -
07:34 6,4 3,6   Calm 17,7 1012,4 82 -
07:39 6,3 3,5 3,2 WSW 3,2 1012,4 82 -
07:43 6,3 3,5   Calm 6,4 1012,4 82 -
07:49 6,3 3,5 1,4 ESE 4,8 1012,4 82 -
07:54 6,3 3,5 3,2 East 8,0 1012,4 82 -
07:59 6,3 3,5   Calm 1,6 1012,4 82 -
08:04 6,3 3,5 3,2 NE 11,3 1012,4 82 -
08:09 6,3 3,5   Calm 11,3 1012,1 82 -
08:14 6,3 3,5 3,2 WNW 4,8 1012,1 82 -
08:19 6,2 3,4 1,4 SE 11,3 1012,1 82 -
08:24 6,2 3,4 3,2 SE 6,4 1012,1 82 -
08:28 6,2 3,5 1,4 ESE 3,2 1012,1 83 -
08:34 6,2 3,5 3,2 SSW 6,4 1012,1 83 -
08:39 6,2 3,5 1,4 WSW 3,2 1012,1 83 -
08:44 6,2 3,5 1,4 East 6,4 1012,1 83 -
08:48 6,2 3,5   Calm 4,8 1012,1 83 -
08:54 6,2 3,5 1,4 East 1,6 1012,1 83 -
08:59 6,2 3,5 1,4 East 3,2 1012,1 83 -
09:04 6,1 3,4   Calm 6,4 1012,1 83 -
09:09 6,1 3,6 1,4 ESE 3,2 1012,1 84 -
09:14 6,1 3,6 3,2 ESE 8,0 1012,1 84 -
09:19 6,1 3,6 1,4 East 6,4 1012,1 84 -
09:24 6,1 3,6 1,4 ESE 8,0 1012,1 84 -
09:29 6,0 3,5   Calm 8,0 1012,1 84 -
09:34 6,0 3,5 1,4 ESE 3,2 1011,7 84 -
09:39 6,0 3,5   Calm 8,0 1011,7 84 -
09:44 6,1 3,6 1,4 NE 1,6 1011,7 84 -
09:49 6,1 3,6 3,2 ESE 6,4 1011,7 84 -
09:54 6,1 3,4 1,4 West 4,8 1011,7 83 -
09:59 6,1 3,4   Calm 1,6 1012,1 83 -
10:04 6,0 3,3   Calm 1,6 1011,7 83 -
10:09 6,0 3,3 3,2 SE 12,9 1011,7 83 -
10:14 6,0 3,3 1,4 West 6,4 1011,7 83 -
10:19 6,1 3,4   Calm 4,8 1011,7 83 -
10:23 6,1 3,3 1,4 ESE 9,7 1011,7 82 -
10:29 6,1 3,3   Calm 1,6 1011,7 82 -
10:34 6,0 3,2 1,4 NNE 11,3 1011,4 82 -
10:38 5,9 3,1 1,4 East 4,8 1011,4 82 -
10:44 6,0 3,2 1,4 East 11,3 1011,4 82 -
10:49 5,9 3,1 1,4 SE 11,3 1011,4 82 -
10:54 5,9 3,1 1,4 SW 4,8 1011,4 82 -
10:59 5,9 3,1   Calm 3,2 1011,4 82 -
11:03 5,9 3,1 3,2 ESE 11,3 1011,1 82 -
11:09 5,9 3,1 4,7 ENE 9,7 1011,4 82 -
11:14 5,9 3,1 1,4 ESE 8,0 1011,1 82 -
11:19 5,8 3,0   Calm 4,8 1011,1 82 -
11:24 5,9 3,1 4,7 SE 9,7 1011,1 82 -
11:28 5,9 3,1   Calm 8,0 1010,7 82 -
11:34 5,9 3,1   Calm 11,3 1011,1 82 -
11:38 5,9 3,1 3,2 East 4,8 1011,1 82 -
11:44 5,9 3,1 7,9 East 20,9 1011,1 82 -
11:49 5,8 3,0 9,7 WNW 9,7 1010,7 82 -
11:53 5,8 3,0   Calm 1,6 1010,7 82 -
11:58 5,9 3,1   Calm 3,2 1010,7 82 -
12:04 6,0 3,2 1,4 ESE 1,6 1010,4 82 -
12:09 6,0 3,2   Calm   1010,4 82 -
12:14 6,1 3,1   Calm 6,4 1010,4 81 -
12:19 6,1 3,1 1,4 SE 6,4 1010,0 81 -
12:24 6,1 3,1   Calm 4,8 1010,0 81 -
12:29 6,2 3,0 1,4 ESE 4,8 1009,7 80 -
12:34 6,2 3,0   Calm 1,6 1009,7 80 -
12:39 6,2 2,8 1,4 ESE 8,0 1009,7 79 -
12:44 6,2 2,8 1,4 ESE 8,0 1009,7 79 -
12:49 6,2 2,6 6,4 WNW 14,5 1009,4 78 -
12:54 6,3 2,7 7,9 East 14,5 1009,4 78 -
12:59 6,3 2,6   Calm 6,4 1009,4 77 -
13:04 6,4 2,8   Calm 3,2 1009,0 78 -
13:08 6,4 2,7 1,4 ESE 11,3 1009,0 77 -
13:14 6,4 2,7 1,4 ESE 8,0 1009,0 77 -
13:19 6,5 2,8 3,2 East 14,5 1008,7 77 -
13:23 6,5 2,8 3,2 WNW 3,2 1008,7 77 -
13:29 6,5 2,6 9,7 NNE 9,7 1008,4 76 -
13:34 6,5 2,8 3,2 ENE 6,4 1008,4 77 -
13:39 6,6 2,9 6,4 South 12,9 1008,4 77 -
13:44 6,6 2,7 6,4 NW 6,4 1008,4 76 -
13:49 6,6 2,7 1,4 West 4,8 1008,4 76 -
13:53 6,7 2,8   Calm 9,7 1008,4 76 -
13:59 6,7 2,6 9,7 WNW 9,7 1008,4 75 -
14:03 6,6 2,7   Calm 9,7 1008,0 76 -
14:09 6,6 2,7 3,2 West 8,0 1008,0 76 -
14:14 6,7 2,8   Calm 8,0 1008,0 76 -
14:19 6,7 2,8   Calm 4,8 1008,0 76 -
14:24 6,7 2,6 4,7 ESE 8,0 1007,7 75 -
14:29 6,7 2,8 3,2 West 9,7 1007,7 76 -
14:34 6,6 2,7 4,7 West 11,3 1007,3 76 -
14:39 6,6 2,7 4,7 NNW 12,9 1007,3 76 -
14:44 6,7 2,8 3,2 NW 4,8 1007,3 76 -
14:48 6,6 2,7 3,2 ESE 6,4 1007,3 76 -
14:54 6,6 2,7 1,4 ESE 4,8 1007,0 76 -
14:59 6,7 3,0 4,7 ESE 6,4 1007,0 77 -
15:04 6,7 2,8 1,4 SSW 3,2 1007,0 76 -
15:09 6,7 2,8   Calm 4,8 1007,0 76 -
15:13 6,7 2,8 3,2 WNW 12,9 1007,0 76 -
15:19 6,6 2,7 4,7 ESE 14,5 1006,7 76 -
15:24 6,7 2,8 1,4 ESE 8,0 1006,3 76 -
15:29 6,7 2,8 1,4 East 12,9 1006,3 76 -
15:34 6,6 2,5 4,7 West 14,5 1006,3 75 -
15:39 6,6 2,7 6,4 NNE 12,9 1006,3 76 -
15:44 6,5 2,6 3,2 WNW 14,5 1006,3 76 -
15:49 6,5 2,8 1,4 SE 9,7 1006,3 77 -
15:54 6,4 2,7 1,4 WNW 11,3 1006,3 77 -
15:59 6,4 2,7   Calm 3,2 1006,3 77 -
16:04 6,4 2,7   Calm 6,4 1006,3 77 -
16:09 6,3 2,6   Calm 4,8 1006,3 77 -
16:14 6,3 2,6 1,4 NNE 8,0 1006,3 77 -
Daily Summary for Wednesday 16 January 2019
Time Temp. ( °C ) Dew pt. ( °C ) Wind ( km/h ) from Gust ( km/h ) Pressure ( hPa ) Humid.( % ) Rainrate ( cm )
High6,8 5,4 11,3 East ( 77/363 ) 20,9 1016,5 93 0,30
Average6,4 3,7 1,9 Calm #68/195 6,2 1012,1 83 0,60
Low5,8 2,5 -   0,0 1006,3 75 -
Daily Tabular details for Wednesday 16 January 2019
Time Temp. ( °C ) Dew pt. ( °C ) Wind ( km/h ) from Gust ( km/h ) Pressure ( hPa ) Humid.( % ) Rainrate ( cm )
00:04 6,4 5,4   Calm 1,6 1016,5 93 -
00:09 6,4 5,4   Calm 3,2 1016,5 93 -
00:14 6,4 5,4   Calm 3,2 1016,5 93 -
00:18 6,4 5,4 1,4 ESE 1,6 1016,5 93 -
00:24 6,4 5,2 1,4 South 1,6 1016,5 92 -
00:29 6,4 5,2   Calm 1,6 1016,5 92 -
00:34 6,4 5,2   Calm 4,8 1016,5 92 -
00:39 6,5 5,3   Calm   1016,5 92 -
00:44 6,4 5,2 1,4 SW 3,2 1016,1 92 -
00:48 6,4 5,2   Calm   1016,1 92 -
00:54 6,4 5,2 1,4 East 3,2 1016,1 92 -
00:59 6,3 5,1   Calm 1,6 1016,1 92 -
01:04 6,3 5,3   Calm 1,6 1016,1 93 -
01:09 6,3 5,3 1,4 SSW 1,6 1016,1 93 -
01:13 6,3 5,3   Calm 3,2 1015,8 93 -
01:19 6,3 5,3   Calm 4,8 1015,8 93 -
01:23 6,2 5,2 1,4 SW 6,4 1015,8 93 -
01:29 6,2 5,0   Calm 1,6 1015,8 92 0,30
01:33 6,3 5,1   Calm 6,4 1015,8 92 0,30
01:39 6,3 4,9 3,2 ESE 4,8 1015,8 91 0,30
01:44 6,4 5,0   Calm 1,6 1015,8 91 0,30
01:48 6,4 4,9 9,7 East 9,7 1015,5 90 0,30
01:54 6,5 4,8 1,4 ENE 6,4 1015,5 89 0,30
01:58 6,6 4,9   Calm 1,6 1015,5 89 0,30
02:04 6,6 4,8   Calm 6,4 1015,5 88 0,30
02:08 6,7 4,9   Calm 4,8 1015,5 88 0,30
02:14 6,7 4,9 1,4 SE 4,8 1015,1 88 0,30
02:18 6,7 4,9 4,7 East 6,4 1015,1 88 0,30
02:24 6,7 4,9   Calm 6,4 1015,5 88 0,30
02:28 6,7 4,9 1,4 NW 4,8 1015,1 88 -
02:34 6,7 4,9   Calm 3,2 1015,1 88 -
02:39 6,7 4,9 3,2 West 4,8 1015,1 88 -
02:44 6,7 4,9 6,4 ESE 8,0 1015,5 88 -
02:49 6,7 4,7 3,2 WSW 4,8 1015,5 87 -
02:54 6,7 4,7 4,7 East 8,0 1015,5 87 -
02:59 6,7 4,7   Calm 3,2 1015,1 87 -
03:04 6,7 4,7 1,4 SSE 4,8 1015,1 87 -
03:09 6,7 4,7 11,3 East 11,3 1015,1 87 -
03:14 6,7 4,7 1,4 NE 4,8 1015,1 87 -
03:19 6,7 4,7 4,7 ENE 4,8 1015,1 87 -
03:24 6,7 4,5 1,4 ESE 3,2 1014,8 86 -
03:29 6,7 4,5 1,4 ESE 6,4 1014,8 86 -
03:34 6,7 4,5   Calm 9,7 1014,8 86 -
03:39 6,7 4,5 1,4 ESE 3,2 1014,8 86 -
03:44 6,7 4,5 4,7 East 4,8 1014,8 86 -
03:49 6,7 4,4 1,4 SW 4,8 1014,4 85 -
03:54 6,7 4,4 1,4 ENE 6,4 1014,4 85 -
03:59 6,7 4,4 1,4 SE 4,8 1014,4 85 -
04:04 6,8 4,5 3,2 ESE 4,8 1014,4 85 -
04:09 6,8 4,5 1,4 ENE 8,0 1014,4 85 -
04:14 6,8 4,3 1,4 East 4,8 1014,4 84 -
04:18 6,7 4,2   Calm 8,0 1014,1 84 -
04:24 6,8 4,3 3,2 WNW 4,8 1014,4 84 -
04:29 6,7 4,2   Calm 6,4 1014,1 84 -
04:34 6,7 4,4   Calm 1,6 1014,1 85 -
04:39 6,7 4,4   Calm 1,6 1014,1 85 -
04:44 6,7 4,4 1,4 NW 1,6 1014,1 85 -
04:49 6,7 4,2 1,4 WNW 9,7 1014,1 84 -
04:54 6,7 4,4 1,4 East 9,7 1013,8 85 -
04:59 6,7 4,2 1,4 East 6,4 1013,8 84 -
05:04 6,7 4,2 1,4 NNW 8,0 1013,8 84 -
05:09 6,6 4,1 6,4 West 12,9 1013,8 84 -
05:14 6,7 4,2   Calm 4,8 1013,8 84 -
05:18 6,7 4,2   Calm 1,6 1013,8 84 -
05:24 6,6 4,1   Calm 3,2 1013,4 84 -
05:29 6,6 4,1 1,4 ESE 1,6 1013,4 84 -
05:34 6,6 4,1   Calm 3,2 1013,4 84 -
05:39 6,6 3,9   Calm 1,6 1013,1 83 -
05:44 6,6 3,9 1,4 NW 4,8 1013,1 83 -
05:49 6,6 3,9 3,2 ESE 3,2 1013,4 83 -
05:54 6,6 3,9 1,4 West 4,8 1013,1 83 -
05:59 6,6 3,9 1,4 ESE 6,4 1013,1 83 -
06:04 6,6 3,9   Calm 3,2 1013,1 83 -
06:09 6,6 3,9 1,4 East 6,4 1013,1 83 -
06:14 6,6 3,9   Calm 1,6 1013,1 83 -
06:18 6,6 3,7 3,2 West 4,8 1013,1 82 -
06:24 6,6 3,7   Calm 4,8 1013,1 82 -
06:28 6,6 3,7 3,2 ESE 9,7 1012,8 82 -
06:34 6,6 3,6 3,2 SE 4,8 1012,8 81 -
06:39 6,6 3,6 1,4 WSW 6,4 1012,8 81 -
06:44 6,6 3,6 1,4 West 3,2 1012,8 81 -
06:48 6,6 3,6 1,4 ENE 6,4 1012,8 81 -
06:54 6,5 3,5 1,4 WNW 4,8 1012,8 81 -
06:58 6,5 3,5 4,7 WNW 8,0 1012,8 81 -
07:04 6,4 3,4   Calm 1,6 1012,8 81 -
07:09 6,4 3,4 3,2 ENE 3,2 1012,4 81 -
07:14 6,4 3,4 3,2 SE 8,0 1012,4 81 -
07:19 6,4 3,4   Calm 3,2 1012,4 81 -
07:24 6,4 3,4 1,4 ESE 9,7 1012,4 81 -
07:29 6,4 3,4   Calm 3,2 1012,8 81 -
07:34 6,4 3,6   Calm 17,7 1012,4 82 -
07:39 6,3 3,5 3,2 WSW 3,2 1012,4 82 -
07:43 6,3 3,5   Calm 6,4 1012,4 82 -
07:49 6,3 3,5 1,4 ESE 4,8 1012,4 82 -
07:54 6,3 3,5 3,2 East 8,0 1012,4 82 -
07:59 6,3 3,5   Calm 1,6 1012,4 82 -
08:04 6,3 3,5 3,2 NE 11,3 1012,4 82 -
08:09 6,3 3,5   Calm 11,3 1012,1 82 -
08:14 6,3 3,5 3,2 WNW 4,8 1012,1 82 -
08:19 6,2 3,4 1,4 SE 11,3 1012,1 82 -
08:24 6,2 3,4 3,2 SE 6,4 1012,1 82 -
08:28 6,2 3,5 1,4 ESE 3,2 1012,1 83 -
08:34 6,2 3,5 3,2 SSW 6,4 1012,1 83 -
08:39 6,2 3,5 1,4 WSW 3,2 1012,1 83 -
08:44 6,2 3,5 1,4 East 6,4 1012,1 83 -
08:48 6,2 3,5   Calm 4,8 1012,1 83 -
08:54 6,2 3,5 1,4 East 1,6 1012,1 83 -
08:59 6,2 3,5 1,4 East 3,2 1012,1 83 -
09:04 6,1 3,4   Calm 6,4 1012,1 83 -
09:09 6,1 3,6 1,4 ESE 3,2 1012,1 84 -
09:14 6,1 3,6 3,2 ESE 8,0 1012,1 84 -
09:19 6,1 3,6 1,4 East 6,4 1012,1 84 -
09:24 6,1 3,6 1,4 ESE 8,0 1012,1 84 -
09:29 6,0 3,5   Calm 8,0 1012,1 84 -
09:34 6,0 3,5 1,4 ESE 3,2 1011,7 84 -
09:39 6,0 3,5   Calm 8,0 1011,7 84 -
09:44 6,1 3,6 1,4 NE 1,6 1011,7 84 -
09:49 6,1 3,6 3,2 ESE 6,4 1011,7 84 -
09:54 6,1 3,4 1,4 West 4,8 1011,7 83 -
09:59 6,1 3,4   Calm 1,6 1012,1 83 -
10:04 6,0 3,3   Calm 1,6 1011,7 83 -
10:09 6,0 3,3 3,2 SE 12,9 1011,7 83 -
10:14 6,0 3,3 1,4 West 6,4 1011,7 83 -
10:19 6,1 3,4   Calm 4,8 1011,7 83 -
10:23 6,1 3,3 1,4 ESE 9,7 1011,7 82 -
10:29 6,1 3,3   Calm 1,6 1011,7 82 -
10:34 6,0 3,2 1,4 NNE 11,3 1011,4 82 -
10:38 5,9 3,1 1,4 East 4,8 1011,4 82 -
10:44 6,0 3,2 1,4 East 11,3 1011,4 82 -
10:49 5,9 3,1 1,4 SE 11,3 1011,4 82 -
10:54 5,9 3,1 1,4 SW 4,8 1011,4 82 -
10:59 5,9 3,1   Calm 3,2 1011,4 82 -
11:03 5,9 3,1 3,2 ESE 11,3 1011,1 82 -
11:09 5,9 3,1 4,7 ENE 9,7 1011,4 82 -
11:14 5,9 3,1 1,4 ESE 8,0 1011,1 82 -
11:19 5,8 3,0   Calm 4,8 1011,1 82 -
11:24 5,9 3,1 4,7 SE 9,7 1011,1 82 -
11:28 5,9 3,1   Calm 8,0 1010,7 82 -
11:34 5,9 3,1   Calm 11,3 1011,1 82 -
11:38 5,9 3,1 3,2 East 4,8 1011,1 82 -
11:44 5,9 3,1 7,9 East 20,9 1011,1 82 -
11:49 5,8 3,0 9,7 WNW 9,7 1010,7 82 -
11:53 5,8 3,0   Calm 1,6 1010,7 82 -
11:58 5,9 3,1   Calm 3,2 1010,7 82 -
12:04 6,0 3,2 1,4 ESE 1,6 1010,4 82 -
12:09 6,0 3,2   Calm   1010,4 82 -
12:14 6,1 3,1   Calm 6,4 1010,4 81 -
12:19 6,1 3,1 1,4 SE 6,4 1010,0 81 -
12:24 6,1 3,1   Calm 4,8 1010,0 81 -
12:29 6,2 3,0 1,4 ESE 4,8 1009,7 80 -
12:34 6,2 3,0   Calm 1,6 1009,7 80 -
12:39 6,2 2,8 1,4 ESE 8,0 1009,7 79 -
12:44 6,2 2,8 1,4 ESE 8,0 1009,7 79 -
12:49 6,2 2,6 6,4 WNW 14,5 1009,4 78 -
12:54 6,3 2,7 7,9 East 14,5 1009,4 78 -
12:59 6,3 2,6   Calm 6,4 1009,4 77 -
13:04 6,4 2,8   Calm 3,2 1009,0 78 -
13:08 6,4 2,7 1,4 ESE 11,3 1009,0 77 -
13:14 6,4 2,7 1,4 ESE 8,0 1009,0 77 -
13:19 6,5 2,8 3,2 East 14,5 1008,7 77 -
13:23 6,5 2,8 3,2 WNW 3,2 1008,7 77 -
13:29 6,5 2,6 9,7 NNE 9,7 1008,4 76 -
13:34 6,5 2,8 3,2 ENE 6,4 1008,4 77 -
13:39 6,6 2,9 6,4 South 12,9 1008,4 77 -
13:44 6,6 2,7 6,4 NW 6,4 1008,4 76 -
13:49 6,6 2,7 1,4 West 4,8 1008,4 76 -
13:53 6,7 2,8   Calm 9,7 1008,4 76 -
13:59 6,7 2,6 9,7 WNW 9,7 1008,4 75 -
14:03 6,6 2,7   Calm 9,7 1008,0 76 -
14:09 6,6 2,7 3,2 West 8,0 1008,0 76 -
14:14 6,7 2,8   Calm 8,0 1008,0 76 -
14:19 6,7 2,8   Calm 4,8 1008,0 76 -
14:24 6,7 2,6 4,7 ESE 8,0 1007,7 75 -
14:29 6,7 2,8 3,2 West 9,7 1007,7 76 -
14:34 6,6 2,7 4,7 West 11,3 1007,3 76 -
14:39 6,6 2,7 4,7 NNW 12,9 1007,3 76 -
14:44 6,7 2,8 3,2 NW 4,8 1007,3 76 -
14:48 6,6 2,7 3,2 ESE 6,4 1007,3 76 -
14:54 6,6 2,7 1,4 ESE 4,8 1007,0 76 -
14:59 6,7 3,0 4,7 ESE 6,4 1007,0 77 -
15:04 6,7 2,8 1,4 SSW 3,2 1007,0 76 -
15:09 6,7 2,8   Calm 4,8 1007,0 76 -
15:13 6,7 2,8 3,2 WNW 12,9 1007,0 76 -
15:19 6,6 2,7 4,7 ESE 14,5 1006,7 76 -
15:24 6,7 2,8 1,4 ESE 8,0 1006,3 76 -
15:29 6,7 2,8 1,4 East 12,9 1006,3 76 -
15:34 6,6 2,5 4,7 West 14,5 1006,3 75 -
15:39 6,6 2,7 6,4 NNE 12,9 1006,3 76 -
15:44 6,5 2,6 3,2 WNW 14,5 1006,3 76 -
15:49 6,5 2,8 1,4 SE 9,7 1006,3 77 -
15:54 6,4 2,7 1,4 WNW 11,3 1006,3 77 -
15:59 6,4 2,7   Calm 3,2 1006,3 77 -
16:04 6,4 2,7   Calm 6,4 1006,3 77 -
16:09 6,3 2,6   Calm 4,8 1006,3 77 -
16:14 6,3 2,6 1,4 NNE 8,0 1006,3 77 -

Download your copy of this data-set  here

Our weather-data as stored at Weather Underground. Script developed by Jim McMurry. Adapted for the template by Leuven-Template.eu

You find our weather info also at:

UK Metoffice

WeatherCloud

European Weather Network

Weather Underground

Benelux Weather Network

AWEKAS

WeatherlinkIP

Citizen Weather Observer Program (CWOP)

HAMweather, WeatherForYou, PWS Weather

Equipment we use:

Weather-station
Davis VUE

Weather-program
Meteobridge

Weather-server
D-Link DIR-505

Provider
Robohost

Davis VUE

Meteobridge

D-Link DIR-505

Robohost